Погода в Миллерове

Россия / Ростовская область     47°49′36″N   39°15′00″E
темп.,
°C
ветер,
м/с
пор.,
м/с
влажн.,
%
обл.,
%
осадки,
мм/ч
давл.,
гПа
погр.,
м
19 января, ср
ср1900:00−3з46835 0.0 1012406
03:00−4зюз477996 0.0 1014540
06:00−4з467498 0.0 1014810
09:00−4зюз4572100 0.1 1016758
12:00−3з4471100 0.1 1016831
15:00−3сз3476100 0.2 1017712
18:00−5сз358222 0.0 1018395
21:00−6ссз468573 0.1 1019352
20 января, чт
чт2000:00−7ссз358610 0.0 1020268
03:00−8ссз238619 0.0 1020214
06:00−9сз238624 0.0 1020208
09:00−9ссз11855 0.0 1021163
12:00−6з227366 0.0 1021441
15:00−4з23615 0.0 1020607
18:00−5ююз23670 0.0 102051
21:00−6ю247072 0.0 101982
21 января, пт
пт2100:00−5юв367998 0.0 1019180
03:00−4юв5985100 0.0 1017249
06:00−3юв61294100 0.2 1015351
09:00−1ююв71698100 1.1 1013758
12:00+1ююз71698100 2.2 1013644
15:00+4юз61284100 2.3 1012640
18:00+1юз5991100 0.0 1013266
21:000юз2495100 0.2 1014107
22 января, сб
сб2200:00−1з2389100 0.1 101499
03:00−2зсз2395100 0.7 1014455
06:00−3з2496100 1.5 1014329
09:00−3з249098 1.9 1015320
12:00−1зюз347611 0.0 1016640
15:00−1юз3471100 0.0 1016658
18:00−2ю2384100 0.0 101856
21:00−3ююв2392100 0.0 102056
23 января, вс
вс2300:00−4ююв2397100 0.0 102167
03:00−3св1198100 0.0 102125
06:00−3всв3492100 0.0 1021154
09:00−3всв4887100 0.0 1022306
12:00−2св5891100 0.3 1022468
15:00−1св71288100 0.4 1021515
18:00−2св71392100 0.0 1021458
21:000всв71395100 0.1 1019493